contact:dominique.lefevre@mio.osupytheas.fr, maurice.libes@osupytheas.fr, didier.mallarino@osupytheas.fr
Project:EMSO http://www.emso-fr.org/EMSO-France
Depth: 2436.0 m
Title:EMSO Ligure Ouest : Data MII capteur AQUADOPP
Date,Latitude,Longitude,X_East,Y_North,Z_Up,Amplitude_X,Amplitude_Y,Amplitude_Z,Batterie,SoundSpeed,Heading,Pitch,Roll,Pressure,TIS,Speed,Direction
, degrees North, degrees East, m.s-1, m.s-1,m.s-1, 1, 1, 1, Volt, m.s-1, degree, degree, degree, dbar, degree_C, m.s-1, degree
2022-05-04T00:04:03,42.805,6.029,0.036,0.013,-0.006,102.0,103.0,100.0,13.4,1505.2,323.0,-0.8,1.8,2470.782,13.28,0.038,70.1
2022-05-04T00:07:03,42.805,6.029,0.024,-0.003,-0.003,102.0,104.0,102.0,13.3,1505.2,328.1,-0.8,1.8,2471.003,13.28,0.024,97.1
2022-05-04T00:10:03,42.805,6.029,0.009,0.021,-0.028,102.0,103.0,101.0,13.3,1505.2,328.5,-0.7,1.8,2471.039,13.28,0.022,23.2
2022-05-04T00:13:03,42.805,6.029,0.011,0.001,0.018,103.0,103.0,101.0,13.4,1505.2,324.2,-0.8,1.9,2470.839,13.28,0.011,84.8
2022-05-04T00:16:03,42.805,6.029,0.04,-0.01,0.015,103.0,103.0,102.0,13.4,1505.2,324.9,-0.8,1.8,2470.719,13.28,0.041,104.0
2022-05-04T00:19:03,42.805,6.029,0.012,0.004,0.009,103.0,105.0,101.0,13.4,1505.2,329.5,-0.8,1.8,2470.649,13.28,0.012,71.6
2022-05-04T00:22:03,42.805,6.029,0.021,-0.02,0.011,102.0,103.0,102.0,13.4,1505.2,329.7,-0.8,1.8,2470.895,13.28,0.028,133.6
2022-05-04T00:25:03,42.805,6.029,0.003,0.0,0.025,103.0,103.0,101.0,13.3,1505.2,324.2,-0.8,1.8,2470.848,13.28,0.003,90.0
2022-05-04T00:28:03,42.805,6.029,0.01,-0.005,0.002,103.0,103.0,101.0,13.3,1505.2,329.8,-0.7,1.8,2470.74,13.28,0.011,116.6
2022-05-04T00:31:03,42.805,6.029,0.024,-0.002,0.011,102.0,103.0,101.0,13.3,1505.2,324.8,-0.7,1.8,2470.694,13.28,0.024,94.8
2022-05-04T00:34:03,42.805,6.029,0.02,0.001,0.004,102.0,103.0,101.0,13.4,1505.2,329.1,-0.8,1.8,2470.663,13.28,0.02,87.1
2022-05-04T00:37:03,42.805,6.029,0.02,0.019,0.026,102.0,103.0,101.0,13.4,1505.2,327.2,-0.8,1.8,2470.609,13.28,0.027,46.5
2022-05-04T00:40:03,42.805,6.029,0.033,0.006,-0.02,103.0,102.0,100.0,13.4,1505.2,323.7,-0.7,1.8,2470.74,13.28,0.033,79.7
2022-05-04T00:43:03,42.805,6.029,0.016,-0.004,0.003,102.0,103.0,100.0,13.4,1505.2,331.1,-0.8,1.8,2470.674,13.28,0.016,104.0
2022-05-04T00:46:03,42.805,6.029,0.016,0.002,0.013,103.0,102.0,101.0,13.3,1505.2,327.3,-0.8,1.8,2470.711,13.28,0.016,82.9
2022-05-04T00:49:03,42.805,6.029,0.034,0.009,0.046,104.0,103.0,100.0,13.4,1505.2,331.3,-0.8,1.8,2470.715,13.28,0.035,75.2
2022-05-04T00:52:03,42.805,6.029,0.035,0.0,-0.019,103.0,103.0,101.0,13.4,1505.2,322.2,-0.8,1.8,2470.733,13.28,0.035,90.0
2022-05-04T00:55:03,42.805,6.029,0.003,0.002,-0.014,103.0,103.0,102.0,13.4,1505.2,325.0,-0.8,1.8,2470.68,13.28,0.003,56.3
2022-05-04T00:58:03,42.805,6.029,0.026,0.014,0.011,104.0,103.0,102.0,13.4,1505.2,333.0,-0.7,1.9,2470.609,13.28,0.029,61.7
2022-05-04T02:04:03,42.805,6.029,0.018,0.001,-0.001,102.0,103.0,100.0,13.4,1505.1,329.9,-0.7,1.9,2469.968,13.27,0.018,86.8
2022-05-04T02:07:03,42.805,6.029,0.002,-0.001,0.016,103.0,103.0,100.0,13.4,1505.2,327.8,-0.8,1.8,2469.99,13.28,0.002,116.6
2022-05-04T02:10:03,42.805,6.029,0.015,0.004,0.01,102.0,102.0,100.0,13.4,1505.2,331.8,-0.8,1.8,2469.998,13.28,0.015,75.1
2022-05-04T02:13:03,42.805,6.029,0.037,-0.018,-0.005,103.0,103.0,101.0,13.4,1505.2,328.7,-0.8,1.8,2470.01,13.28,0.041,115.9
2022-05-04T02:16:03,42.805,6.029,0.038,0.017,0.014,103.0,105.0,100.0,13.4,1505.2,325.5,-0.7,1.8,2470.055,13.28,0.041,65.9
2022-05-04T02:19:03,42.805,6.029,0.025,-0.007,0.005,102.0,102.0,101.0,13.4,1505.2,327.2,-0.8,1.8,2470.057,13.28,0.025,105.6
2022-05-04T02:22:03,42.805,6.029,0.026,0.0,0.045,102.0,103.0,100.0,13.4,1505.2,327.5,-0.7,1.8,2470.103,13.28,0.026,90.0
2022-05-04T02:25:03,42.805,6.029,0.034,0.003,-0.003,103.0,103.0,101.0,13.3,1505.2,329.6,-0.8,1.8,2470.105,13.28,0.034,85.0
2022-05-04T02:28:03,42.805,6.029,0.011,-0.003,0.03,102.0,103.0,101.0,13.4,1505.2,321.4,-0.8,1.8,2470.11,13.28,0.011,105.3
2022-05-04T02:31:03,42.805,6.029,0.024,0.012,0.018,103.0,103.0,101.0,13.3,1505.2,327.5,-0.8,1.8,2470.136,13.28,0.026,63.4
2022-05-04T02:34:03,42.805,6.029,0.014,0.015,0.024,102.0,103.0,100.0,13.4,1505.2,326.3,-0.7,1.9,2470.112,13.28,0.02,43.0
2022-05-04T02:37:03,42.805,6.029,0.046,-0.007,0.011,102.0,103.0,101.0,13.4,1505.2,325.7,-0.7,1.8,2470.091,13.28,0.046,98.7
2022-05-04T02:40:03,42.805,6.029,0.015,0.012,-0.019,102.0,103.0,101.0,13.3,1505.2,329.5,-0.7,1.8,2470.086,13.28,0.019,51.3
2022-05-04T02:43:03,42.805,6.029,0.012,0.023,0.034,103.0,103.0,101.0,13.4,1505.2,330.1,-0.8,1.8,2470.106,13.28,0.025,27.6
2022-05-04T02:46:03,42.805,6.029,0.008,-0.01,-0.01,102.0,103.0,100.0,13.4,1505.2,329.4,-0.8,1.8,2470.06,13.28,0.012,141.3
2022-05-04T02:49:03,42.805,6.029,0.017,0.011,0.006,103.0,102.0,101.0,13.4,1505.2,324.0,-0.8,1.8,2470.14,13.28,0.02,57.1
2022-05-04T02:52:03,42.805,6.029,0.017,0.0,0.001,103.0,102.0,101.0,13.4,1505.2,330.5,-0.7,1.8,2470.16,13.28,0.017,90.0
2022-05-04T02:55:03,42.805,6.029,0.036,0.005,-0.011,102.0,103.0,100.0,13.4,1505.2,324.7,-0.8,1.8,2470.088,13.28,0.036,82.1
2022-05-04T02:58:03,42.805,6.029,0.014,0.002,0.018,103.0,103.0,101.0,13.4,1505.2,328.5,-0.8,1.8,2470.104,13.28,0.014,81.9
2022-05-04T03:04:03,42.805,6.029,0.049,0.018,0.034,102.0,102.0,100.0,13.4,1505.2,322.3,-0.8,1.8,2470.112,13.28,0.052,69.8
2022-05-04T03:07:03,42.805,6.029,0.034,0.0,0.012,103.0,102.0,101.0,13.4,1505.2,322.6,-0.8,1.8,2470.103,13.28,0.034,90.0
2022-05-04T03:10:03,42.805,6.029,0.011,0.003,0.001,103.0,102.0,101.0,13.3,1505.2,326.6,-0.8,1.8,2470.088,13.28,0.011,74.7
2022-05-04T03:13:03,42.805,6.029,0.033,-0.011,0.003,102.0,103.0,101.0,13.3,1505.2,328.5,-0.8,1.8,2470.119,13.28,0.034,108.4
2022-05-04T03:16:03,42.805,6.029,-0.002,-0.01,-0.005,102.0,103.0,100.0,13.3,1505.2,329.4,-0.8,1.8,2470.088,13.28,0.01,191.3
2022-05-04T03:19:03,42.805,6.029,0.036,0.0,0.035,102.0,103.0,101.0,13.4,1505.2,323.1,-0.8,1.8,2470.101,13.28,0.036,90.0
2022-05-04T03:22:03,42.805,6.029,0.033,0.001,0.007,103.0,103.0,100.0,13.4,1505.2,331.7,-0.8,1.8,2470.132,13.28,0.033,88.3
2022-05-04T03:25:03,42.805,6.029,-0.009,-0.002,0.012,102.0,102.0,100.0,13.4,1505.2,324.5,-0.7,1.8,2470.106,13.28,0.009,257.5
2022-05-04T03:28:03,42.805,6.029,0.015,-0.005,-0.009,101.0,103.0,99.0,13.4,1505.2,323.8,-0.8,1.8,2470.124,13.28,0.015,108.4
2022-05-04T03:31:03,42.805,6.029,0.039,-0.001,0.007,101.0,102.0,101.0,13.4,1505.2,326.0,-0.7,1.8,2470.137,13.28,0.039,91.5
2022-05-04T03:34:03,42.805,6.029,0.031,-0.002,-0.004,103.0,101.0,101.0,13.4,1505.2,329.8,-0.7,1.8,2470.199,13.28,0.031,93.7
2022-05-04T03:37:03,42.805,6.029,0.018,0.002,0.014,102.0,103.0,100.0,13.4,1505.2,328.1,-0.7,1.8,2470.219,13.28,0.018,83.7
2022-05-04T03:40:03,42.805,6.029,-0.002,-0.005,0.01,102.0,102.0,100.0,13.3,1505.2,321.7,-0.8,1.8,2470.166,13.28,0.005,201.8
2022-05-04T03:43:03,42.805,6.029,0.018,-0.001,-0.014,101.0,103.0,100.0,13.4,1505.2,327.9,-0.7,1.8,2470.164,13.28,0.018,93.2
2022-05-04T03:46:03,42.805,6.029,0.047,0.0,0.031,101.0,102.0,100.0,13.3,1505.2,322.9,-0.7,1.8,2470.171,13.28,0.047,90.0
2022-05-04T03:49:03,42.805,6.029,0.012,-0.006,0.028,102.0,103.0,101.0,13.3,1505.2,323.2,-0.7,1.8,2470.144,13.28,0.013,116.6
2022-05-04T03:52:03,42.805,6.029,0.028,0.009,0.026,101.0,103.0,100.0,13.3,1505.2,328.9,-0.7,1.8,2470.113,13.28,0.029,72.2
2022-05-04T03:55:03,42.805,6.029,0.013,0.009,0.004,102.0,102.0,100.0,13.4,1505.2,329.1,-0.8,1.8,2470.173,13.28,0.015,55.3
2022-05-04T03:58:03,42.805,6.029,0.021,-0.002,-0.011,102.0,102.0,100.0,13.4,1505.2,330.1,-0.8,1.8,2470.153,13.28,0.021,95.4
2022-05-04T04:04:03,42.805,6.029,-0.003,-0.003,0.0,102.0,102.0,100.0,13.4,1505.2,331.3,-0.7,1.8,2470.077,13.28,0.004,225.0
2022-05-04T04:07:03,42.805,6.029,0.02,0.0,-0.021,102.0,103.0,100.0,13.4,1505.2,332.4,-0.8,1.8,2470.118,13.28,0.02,90.0
2022-05-04T04:10:03,42.805,6.029,0.011,-0.014,-0.007,102.0,103.0,100.0,13.4,1505.2,331.4,-0.8,1.8,2470.145,13.28,0.017,141.8
2022-05-04T04:13:03,42.805,6.029,0.011,-0.006,0.02,102.0,103.0,100.0,13.4,1505.2,324.0,-0.8,1.8,2470.126,13.28,0.012,118.6
2022-05-04T04:16:03,42.805,6.029,0.043,0.021,0.03,102.0,102.0,100.0,13.4,1505.2,331.5,-0.8,1.8,2470.115,13.28,0.047,64.0
2022-05-04T04:19:03,42.805,6.029,0.017,-0.001,-0.013,102.0,102.0,100.0,13.4,1505.2,328.1,-0.8,1.8,2470.115,13.28,0.017,93.4
2022-05-04T04:22:03,42.805,6.029,0.026,0.021,0.019,102.0,103.0,101.0,13.4,1505.2,327.2,-0.8,1.8,2470.087,13.28,0.033,51.1
2022-05-04T04:25:03,42.805,6.029,0.025,0.003,-0.002,102.0,103.0,101.0,13.3,1505.2,332.8,-0.8,1.8,2470.142,13.28,0.025,83.2
2022-05-04T04:28:03,42.805,6.029,0.015,0.013,0.038,103.0,102.0,100.0,13.4,1505.2,329.3,-0.7,1.8,2470.098,13.28,0.019,49.1
2022-05-04T04:31:03,42.805,6.029,0.049,-0.011,0.0,101.0,105.0,100.0,13.4,1505.2,325.8,-0.7,1.8,2470.087,13.28,0.05,102.7
2022-05-04T04:34:03,42.805,6.029,0.018,-0.007,0.002,102.0,103.0,100.0,13.4,1505.2,325.4,-0.7,1.8,2470.086,13.28,0.019,111.2
2022-05-04T04:37:03,42.805,6.029,0.017,0.008,-0.006,102.0,104.0,101.0,13.4,1505.2,327.7,-0.7,1.8,2470.05,13.28,0.018,64.8
2022-05-04T04:40:03,42.805,6.029,0.034,0.005,-0.012,102.0,103.0,101.0,13.4,1505.2,325.9,-0.8,1.8,2470.039,13.28,0.034,81.6
2022-05-04T04:43:03,42.805,6.029,0.044,0.003,0.005,103.0,103.0,100.0,13.4,1505.2,322.4,-0.8,1.8,2470.058,13.28,0.044,86.1
2022-05-04T04:46:03,42.805,6.029,0.016,0.007,0.006,103.0,102.0,100.0,13.4,1505.2,328.5,-0.8,1.8,2470.059,13.28,0.017,66.4
2022-05-04T04:49:03,42.805,6.029,0.027,0.003,0.011,102.0,102.0,101.0,13.4,1505.2,323.1,-0.8,1.9,2470.051,13.28,0.027,83.7
2022-05-04T04:52:03,42.805,6.029,0.009,0.012,-0.008,102.0,103.0,101.0,13.4,1505.2,322.3,-0.7,1.8,2470.101,13.28,0.015,36.9
2022-05-04T04:55:03,42.805,6.029,0.03,0.013,-0.003,102.0,104.0,100.0,13.4,1505.2,324.1,-0.7,1.8,2470.183,13.28,0.032,66.6
2022-05-04T04:58:03,42.805,6.029,0.026,0.001,0.017,102.0,104.0,102.0,13.4,1505.2,329.7,-0.8,1.8,2470.244,13.28,0.026,87.8
2022-05-04T05:04:03,42.805,6.029,0.036,0.021,0.007,102.0,103.0,100.0,13.3,1505.2,331.4,-0.8,1.8,2470.432,13.28,0.041,59.7
2022-05-04T05:07:03,42.805,6.029,0.028,0.015,0.003,102.0,103.0,101.0,13.4,1505.2,331.4,-0.7,1.8,2470.38,13.28,0.031,61.8
2022-05-04T05:10:03,42.805,6.029,0.036,0.003,0.029,102.0,102.0,100.0,13.4,1505.2,331.6,-0.7,1.8,2470.407,13.28,0.036,85.2
2022-05-04T05:13:03,42.805,6.029,0.01,0.02,0.005,101.0,103.0,101.0,13.3,1505.2,330.3,-0.7,1.8,2470.415,13.28,0.022,26.6
2022-05-04T05:16:03,42.805,6.029,0.02,-0.022,0.011,101.0,104.0,101.0,13.4,1505.2,331.8,-0.7,1.8,2470.462,13.28,0.029,137.7
2022-05-04T05:19:03,42.805,6.029,0.022,0.004,0.021,101.0,103.0,100.0,13.4,1505.2,325.3,-0.8,1.8,2470.445,13.28,0.022,79.7
2022-05-04T05:22:03,42.805,6.029,0.017,0.0,-0.004,102.0,102.0,101.0,13.4,1505.2,331.4,-0.7,1.8,2470.443,13.28,0.017,90.0
2022-05-04T05:25:03,42.805,6.029,0.03,0.002,0.027,102.0,104.0,100.0,13.3,1505.2,322.7,-0.8,1.9,2470.458,13.28,0.03,86.2
2022-05-04T05:28:03,42.805,6.029,0.022,0.006,0.0,102.0,102.0,101.0,13.4,1505.2,325.6,-0.7,1.8,2470.514,13.28,0.022,74.7
2022-05-04T05:31:03,42.805,6.029,0.025,-0.012,-0.012,102.0,103.0,100.0,13.4,1505.2,331.6,-0.7,1.8,2470.513,13.28,0.027,115.6
2022-05-04T05:34:03,42.805,6.029,0.032,-0.006,0.022,103.0,105.0,100.0,13.4,1505.2,324.5,-0.7,1.8,2470.503,13.28,0.032,100.6
2022-05-04T05:37:03,42.805,6.029,0.03,-0.004,0.014,103.0,102.0,102.0,13.4,1505.2,322.4,-0.8,1.8,2470.512,13.28,0.03,97.6
2022-05-04T05:40:03,42.805,6.029,0.031,0.008,0.025,102.0,104.0,102.0,13.4,1505.2,323.7,-0.7,1.8,2470.531,13.28,0.032,75.5
2022-05-04T05:43:03,42.805,6.029,0.002,0.004,0.007,102.0,102.0,102.0,13.3,1505.2,325.4,-0.8,1.8,2470.491,13.28,0.004,26.6
2022-05-04T05:46:03,42.805,6.029,-0.002,0.0,-0.008,102.0,103.0,101.0,13.4,1505.2,325.1,-0.7,1.8,2470.501,13.28,0.002,270.0
2022-05-04T05:49:03,42.805,6.029,0.032,-0.01,-0.009,102.0,103.0,101.0,13.3,1505.2,329.3,-0.8,1.8,2470.479,13.28,0.033,107.4
2022-05-04T05:52:03,42.805,6.029,0.024,0.005,-0.011,102.0,103.0,100.0,13.4,1505.2,325.8,-0.8,1.8,2470.465,13.28,0.024,78.2
2022-05-04T05:55:03,42.805,6.029,0.026,0.001,-0.016,102.0,103.0,101.0,13.4,1505.2,329.6,-0.8,1.8,2470.462,13.28,0.026,87.8
2022-05-04T05:58:03,42.805,6.029,0.012,-0.002,0.008,102.0,103.0,101.0,13.3,1505.2,329.3,-0.8,1.8,2470.394,13.28,0.012,99.5
2022-05-04T06:04:03,42.805,6.029,0.013,0.006,-0.003,101.0,103.0,101.0,13.4,1505.2,330.6,-0.8,1.8,2470.373,13.28,0.014,65.2
2022-05-04T06:07:03,42.805,6.029,0.011,0.009,0.014,102.0,103.0,101.0,13.4,1505.2,325.0,-0.8,1.8,2470.38,13.28,0.014,50.7
2022-05-04T06:10:03,42.805,6.029,0.037,-0.008,-0.019,101.0,104.0,101.0,13.4,1505.2,333.0,-0.8,1.8,2470.512,13.28,0.037,102.2
2022-05-04T06:13:03,42.805,6.029,0.035,-0.021,-0.017,101.0,103.0,102.0,13.4,1505.2,327.8,-0.7,1.8,2470.432,13.28,0.04,121.0
2022-05-04T06:16:03,42.805,6.029,0.023,0.01,0.03,102.0,103.0,101.0,13.4,1505.2,329.8,-0.7,1.8,2470.419,13.28,0.025,66.5
2022-05-04T06:19:03,42.805,6.029,0.021,-0.012,-0.037,103.0,103.0,101.0,13.4,1505.2,331.4,-0.7,1.8,2470.409,13.28,0.024,119.7
2022-05-04T06:22:03,42.805,6.029,0.024,0.0,0.004,101.0,102.0,102.0,13.4,1505.2,322.6,-0.8,1.8,2470.477,13.28,0.024,90.0
2022-05-04T06:25:03,42.805,6.029,0.018,0.006,0.035,101.0,103.0,101.0,13.4,1505.2,324.0,-0.7,1.9,2470.479,13.28,0.018,71.6
2022-05-04T06:28:03,42.805,6.029,0.034,0.013,0.04,102.0,104.0,101.0,13.4,1505.2,326.7,-0.7,1.8,2470.445,13.28,0.036,69.1
2022-05-04T06:31:03,42.805,6.029,0.032,0.01,0.028,102.0,103.0,101.0,13.4,1505.2,325.4,-0.7,1.8,2470.356,13.28,0.033,72.6
2022-05-04T06:34:03,42.805,6.029,0.031,-0.002,-0.029,103.0,103.0,101.0,13.4,1505.2,325.5,-0.7,1.8,2470.29,13.28,0.031,93.7
2022-05-04T06:37:03,42.805,6.029,-0.003,0.008,0.011,102.0,104.0,100.0,13.3,1505.2,327.2,-0.8,1.8,2470.263,13.28,0.008,339.4
2022-05-04T06:40:03,42.805,6.029,0.031,0.009,-0.004,103.0,103.0,101.0,13.3,1505.2,330.1,-0.7,1.8,2470.187,13.28,0.032,73.8
2022-05-04T06:43:03,42.805,6.029,0.01,0.012,-0.015,102.0,103.0,101.0,13.3,1505.2,331.4,-0.8,1.8,2470.17,13.28,0.015,39.8
2022-05-04T06:46:03,42.805,6.029,0.028,0.006,0.009,101.0,103.0,102.0,13.3,1505.2,321.8,-0.8,1.8,2469.987,13.28,0.028,77.9
2022-05-04T06:49:03,42.805,6.029,0.041,0.002,-0.009,101.0,104.0,100.0,13.4,1505.2,326.0,-0.8,1.8,2470.041,13.28,0.041,87.2
2022-05-04T06:52:03,42.805,6.029,0.031,-0.005,0.007,101.0,104.0,101.0,13.4,1505.2,331.8,-0.7,1.8,2470.029,13.28,0.031,99.2
2022-05-04T06:55:03,42.805,6.029,0.029,-0.004,-0.006,100.0,102.0,102.0,13.4,1505.2,323.5,-0.7,1.8,2469.953,13.28,0.029,97.8
2022-05-04T06:58:03,42.805,6.029,0.014,-0.004,-0.011,103.0,104.0,101.0,13.4,1505.2,326.6,-0.8,1.8,2469.846,13.28,0.014,105.9
2022-05-04T07:04:03,42.805,6.029,0.025,0.005,0.039,102.0,103.0,100.0,13.4,1505.2,326.5,-0.8,1.8,2469.74,13.28,0.025,78.7
2022-05-04T07:07:03,42.805,6.029,0.028,0.007,-0.023,101.0,103.0,102.0,13.4,1505.2,324.9,-0.8,1.8,2469.743,13.28,0.028,76.0
2022-05-04T07:10:03,42.805,6.029,0.033,-0.004,-0.027,102.0,104.0,100.0,13.3,1505.2,326.6,-0.7,1.8,2469.764,13.28,0.033,96.9
2022-05-04T07:13:03,42.805,6.029,0.048,0.004,0.018,102.0,102.0,100.0,13.4,1505.2,327.8,-0.8,1.8,2469.793,13.28,0.048,85.2
2022-05-04T07:16:03,42.805,6.029,0.045,-0.013,0.001,102.0,103.0,101.0,13.4,1505.2,328.6,-0.8,1.8,2469.781,13.28,0.046,106.1
2022-05-04T07:19:03,42.805,6.029,0.03,0.01,0.009,101.0,104.0,100.0,13.4,1505.2,323.0,-0.8,1.8,2469.823,13.28,0.031,71.6
2022-05-04T07:22:03,42.805,6.029,0.027,-0.011,0.008,102.0,104.0,101.0,13.4,1505.2,324.8,-0.8,1.8,2469.8,13.28,0.029,112.2
2022-05-04T07:25:03,42.805,6.029,0.014,-0.004,-0.01,103.0,103.0,101.0,13.4,1505.2,329.3,-0.8,1.8,2469.822,13.28,0.014,105.9
2022-05-04T07:28:03,42.805,6.029,0.024,0.023,0.025,102.0,103.0,101.0,13.3,1505.2,324.5,-0.8,1.8,2469.873,13.28,0.033,46.2
2022-05-04T07:31:03,42.805,6.029,0.035,0.003,0.028,102.0,103.0,101.0,13.4,1505.2,327.8,-0.8,1.8,2469.868,13.28,0.035,85.1
2022-05-04T07:34:03,42.805,6.029,0.024,-0.008,0.006,101.0,104.0,100.0,13.4,1505.2,326.5,-0.8,1.8,2469.935,13.28,0.025,108.4
2022-05-04T07:37:03,42.805,6.029,0.012,0.013,-0.008,104.0,103.0,101.0,13.3,1505.2,327.8,-0.7,1.8,2469.9,13.28,0.017,42.7
2022-05-04T07:40:03,42.805,6.029,0.021,0.004,0.022,102.0,104.0,100.0,13.4,1505.2,329.5,-0.7,1.8,2469.919,13.28,0.021,79.2
2022-05-04T07:43:03,42.805,6.029,0.013,0.007,0.009,102.0,103.0,100.0,13.3,1505.2,328.8,-0.8,1.8,2469.916,13.28,0.014,61.7
2022-05-04T07:46:03,42.805,6.029,0.038,0.01,0.032,102.0,104.0,101.0,13.4,1505.2,324.2,-0.8,1.8,2470.026,13.28,0.039,75.3
2022-05-04T07:49:03,42.805,6.029,0.007,0.015,0.003,103.0,102.0,101.0,13.4,1505.2,324.4,-0.8,1.8,2470.012,13.28,0.016,25.0
2022-05-04T07:52:03,42.805,6.029,0.014,-0.004,0.009,103.0,104.0,100.0,13.4,1505.2,327.1,-0.7,1.8,2470.036,13.28,0.014,105.9
2022-05-04T07:55:03,42.805,6.029,0.045,0.0,-0.005,101.0,105.0,100.0,13.4,1505.2,328.6,-0.8,1.8,2470.069,13.28,0.045,90.0
2022-05-04T07:58:03,42.805,6.029,0.013,-0.007,-0.005,103.0,103.0,101.0,13.3,1505.2,327.4,-0.8,1.8,2470.054,13.28,0.014,118.3
2022-05-04T08:04:03,42.805,6.029,0.018,0.017,0.009,102.0,103.0,101.0,13.4,1505.2,323.2,-0.7,1.8,2470.151,13.28,0.024,46.6
2022-05-04T08:07:03,42.805,6.029,0.031,0.001,0.034,102.0,104.0,101.0,13.3,1505.2,328.7,-0.8,1.9,2470.16,13.28,0.031,88.2
2022-05-04T08:10:03,42.805,6.029,0.025,0.002,0.0,103.0,104.0,100.0,13.3,1505.2,331.4,-0.8,1.9,2470.173,13.28,0.025,85.4
2022-05-04T08:13:03,42.805,6.029,0.022,-0.01,0.019,101.0,104.0,100.0,13.3,1505.2,321.5,-0.8,1.8,2470.153,13.28,0.024,114.4
2022-05-04T08:16:03,42.805,6.029,0.029,0.0,0.012,101.0,102.0,101.0,13.3,1505.2,329.6,-0.7,1.8,2470.165,13.28,0.028,90.0
2022-05-04T08:19:03,42.805,6.029,0.026,0.006,0.011,102.0,104.0,100.0,13.4,1505.2,325.1,-0.8,1.8,2470.169,13.28,0.026,77.0
2022-05-04T08:22:03,42.805,6.029,0.011,-0.011,0.012,102.0,103.0,101.0,13.4,1505.2,324.7,-0.8,1.8,2470.196,13.28,0.015,135.0
2022-05-04T08:25:03,42.805,6.029,0.026,0.016,0.019,102.0,103.0,100.0,13.4,1505.2,330.1,-0.7,1.8,2470.145,13.28,0.03,58.4
2022-05-04T08:28:03,42.805,6.029,0.035,-0.011,0.03,101.0,103.0,100.0,13.4,1505.2,327.0,-0.8,1.8,2470.195,13.28,0.036,107.4
2022-05-04T08:31:03,42.805,6.029,0.033,-0.01,0.01,101.0,103.0,102.0,13.3,1505.2,330.0,-0.8,1.8,2470.212,13.28,0.034,106.9
2022-05-04T08:34:03,42.805,6.029,0.011,0.021,0.017,103.0,103.0,100.0,13.4,1505.2,325.2,-0.7,1.8,2470.163,13.28,0.023,27.6
2022-05-04T08:37:03,42.805,6.029,0.022,0.001,-0.013,102.0,102.0,102.0,13.4,1505.2,325.5,-0.8,1.8,2470.198,13.28,0.022,87.4
2022-05-04T08:40:03,42.805,6.029,0.024,-0.007,-0.027,101.0,104.0,101.0,13.3,1505.2,326.3,-0.8,1.8,2470.197,13.28,0.025,106.3
2022-05-04T08:43:03,42.805,6.029,0.031,0.0,-0.029,101.0,104.0,102.0,13.3,1505.2,321.6,-0.8,1.8,2470.198,13.28,0.03,90.0
2022-05-04T08:46:03,42.805,6.029,0.021,-0.001,0.0,104.0,101.0,101.0,13.4,1505.2,328.3,-0.8,1.8,2470.151,13.28,0.021,92.7
2022-05-04T08:49:03,42.805,6.029,0.018,0.023,0.004,102.0,103.0,100.0,13.3,1505.2,321.4,-0.7,1.8,2470.142,13.28,0.029,38.0
2022-05-04T08:52:03,42.805,6.029,0.005,0.034,-0.002,102.0,104.0,101.0,13.3,1505.2,323.9,-0.8,1.8,2470.168,13.28,0.034,8.4
2022-05-04T08:55:03,42.805,6.029,0.024,0.0,0.026,102.0,102.0,100.0,13.3,1505.2,320.9,-0.8,1.8,2470.143,13.28,0.024,90.0
2022-05-04T08:58:03,42.805,6.029,0.023,0.014,0.032,102.0,103.0,101.0,13.4,1505.2,332.6,-0.7,1.8,2470.152,13.28,0.026,58.7
2022-05-04T09:04:03,42.805,6.029,0.024,0.0,0.021,102.0,103.0,100.0,13.3,1505.2,331.3,-0.8,1.8,2470.204,13.28,0.024,90.0
2022-05-04T09:07:03,42.805,6.029,0.035,0.001,0.005,101.0,103.0,101.0,13.4,1505.2,327.1,-0.8,1.8,2470.208,13.28,0.035,88.4
2022-05-04T09:10:03,42.805,6.029,0.03,0.009,0.023,102.0,104.0,101.0,13.4,1505.2,331.6,-0.8,1.8,2470.258,13.28,0.031,73.3
2022-05-04T09:13:03,42.805,6.029,0.028,-0.018,0.029,102.0,102.0,101.0,13.4,1505.2,327.1,-0.7,1.8,2470.283,13.28,0.033,122.7
2022-05-04T09:16:03,42.805,6.029,0.032,0.008,0.01,103.0,103.0,101.0,13.3,1505.2,327.4,-0.8,1.8,2470.348,13.28,0.032,76.0
2022-05-04T09:19:03,42.805,6.029,0.019,-0.014,-0.006,102.0,103.0,101.0,13.4,1505.2,323.5,-0.7,1.8,2470.35,13.28,0.023,126.4
2022-05-04T09:22:03,42.805,6.029,0.033,0.017,0.001,103.0,103.0,100.0,13.4,1505.2,327.4,-0.7,1.8,2470.398,13.28,0.037,62.7
2022-05-04T09:25:03,42.805,6.029,0.021,0.003,0.0,99.0,104.0,101.0,13.3,1505.2,332.6,-0.7,1.8,2470.448,13.28,0.021,81.9
2022-05-04T09:28:03,42.805,6.029,0.02,0.021,-0.005,103.0,104.0,101.0,13.4,1505.2,329.2,-0.7,1.8,2470.473,13.28,0.028,43.6
2022-05-04T09:31:03,42.805,6.029,0.017,-0.01,0.009,102.0,103.0,99.0,13.4,1505.2,327.3,-0.8,1.8,2470.521,13.28,0.019,120.5
2022-05-04T09:34:03,42.805,6.029,0.026,0.007,0.001,102.0,102.0,100.0,13.4,1505.2,329.8,-0.8,1.8,2470.561,13.28,0.026,74.9
2022-05-04T09:37:03,42.805,6.029,0.034,0.01,0.032,102.0,103.0,101.0,13.4,1505.2,331.3,-0.8,1.8,2470.553,13.28,0.035,73.6
2022-05-04T09:40:03,42.805,6.029,0.046,0.0,0.011,100.0,103.0,102.0,13.4,1505.2,322.5,-0.8,1.8,2470.59,13.28,0.046,90.0
2022-05-04T09:43:03,42.805,6.029,0.032,0.012,0.02,101.0,103.0,101.0,13.4,1505.2,321.9,-0.7,1.8,2470.628,13.28,0.034,69.4
2022-05-04T09:46:03,42.805,6.029,0.005,0.011,0.008,101.0,104.0,100.0,13.4,1505.2,325.8,-0.8,1.8,2470.661,13.28,0.012,24.4
2022-05-04T09:49:03,42.805,6.029,0.051,0.006,0.003,101.0,104.0,102.0,13.4,1505.2,327.2,-0.8,1.8,2470.726,13.28,0.051,83.3
2022-05-04T09:52:03,42.805,6.029,0.029,-0.01,0.013,103.0,103.0,101.0,13.3,1505.2,332.0,-0.8,1.8,2470.717,13.28,0.03,109.0
2022-05-04T09:55:03,42.805,6.029,0.022,0.013,0.014,102.0,102.0,100.0,13.3,1505.2,329.4,-0.7,1.8,2470.777,13.28,0.025,59.4
2022-05-04T09:58:03,42.805,6.029,0.031,0.025,0.034,102.0,104.0,100.0,13.4,1505.2,328.7,-0.7,1.8,2470.813,13.28,0.039,51.1
2022-05-04T10:04:03,42.805,6.029,0.014,0.009,0.013,102.0,102.0,100.0,13.4,1505.2,327.8,-0.8,1.8,2470.938,13.28,0.016,57.3
2022-05-04T10:07:03,42.805,6.029,0.027,-0.028,-0.003,102.0,104.0,101.0,13.4,1505.2,323.9,-0.8,1.8,2470.942,13.28,0.038,136.0
2022-05-04T10:10:03,42.805,6.029,0.034,0.007,-0.005,103.0,103.0,100.0,13.4,1505.2,325.5,-0.7,1.8,2470.977,13.28,0.034,78.4
2022-05-04T10:13:03,42.805,6.029,0.02,0.006,0.008,103.0,105.0,100.0,13.4,1505.2,332.3,-0.8,1.8,2470.939,13.28,0.02,73.3
2022-05-04T10:16:03,42.805,6.029,0.014,0.001,-0.017,103.0,102.0,101.0,13.3,1505.2,322.7,-0.7,1.8,2470.994,13.28,0.014,85.9
2022-05-04T10:19:03,42.805,6.029,0.038,-0.026,0.004,101.0,103.0,101.0,13.4,1505.2,328.8,-0.7,1.8,2471.037,13.28,0.046,124.4
2022-05-04T10:22:03,42.805,6.029,0.038,-0.024,0.024,101.0,103.0,100.0,13.3,1505.2,331.3,-0.8,1.8,2471.039,13.28,0.044,122.3
2022-05-04T10:25:03,42.805,6.029,0.041,-0.009,0.004,101.0,102.0,100.0,13.4,1505.2,326.4,-0.8,1.8,2471.048,13.28,0.041,102.4
2022-05-04T10:28:03,42.805,6.029,0.042,-0.002,0.0,101.0,102.0,101.0,13.3,1505.2,322.7,-0.8,1.8,2471.052,13.28,0.042,92.7
2022-05-04T10:31:03,42.805,6.029,0.038,0.0,-0.003,101.0,103.0,101.0,13.3,1505.2,327.2,-0.8,1.8,2471.057,13.28,0.038,90.0
2022-05-04T10:34:03,42.805,6.029,0.019,-0.012,-0.03,103.0,102.0,101.0,13.4,1505.2,322.4,-0.8,1.8,2471.092,13.28,0.022,122.3
2022-05-04T10:37:03,42.805,6.029,0.037,0.012,0.018,103.0,103.0,101.0,13.4,1505.2,328.5,-0.8,1.8,2471.075,13.28,0.038,72.0
2022-05-04T10:40:03,42.805,6.029,0.036,-0.007,-0.008,102.0,104.0,99.0,13.3,1505.2,326.0,-0.8,1.8,2471.055,13.28,0.036,101.0
2022-05-04T10:43:03,42.805,6.029,0.03,-0.002,-0.02,102.0,103.0,101.0,13.4,1505.2,325.4,-0.8,1.8,2471.088,13.28,0.03,93.8
2022-05-04T10:46:03,42.805,6.029,0.028,-0.017,-0.013,102.0,102.0,100.0,13.4,1505.2,331.9,-0.8,1.8,2471.1,13.28,0.032,121.3
2022-05-04T10:49:03,42.805,6.029,0.022,-0.012,0.016,102.0,102.0,100.0,13.4,1505.2,329.6,-0.8,1.8,2471.071,13.28,0.025,118.6
2022-05-04T10:52:03,42.805,6.029,0.015,-0.01,-0.008,102.0,103.0,100.0,13.4,1505.2,330.4,-0.8,1.9,2471.098,13.28,0.018,123.7
2022-05-04T10:55:03,42.805,6.029,0.033,0.0,0.004,102.0,103.0,100.0,13.4,1505.2,326.2,-0.8,1.8,2471.106,13.28,0.033,90.0
2022-05-04T10:58:03,42.805,6.029,0.047,0.0,0.035,102.0,103.0,100.0,13.4,1505.2,326.2,-0.8,1.8,2471.126,13.28,0.047,90.0
2022-05-04T11:04:03,42.805,6.029,0.033,-0.011,-0.007,102.0,104.0,100.0,13.3,1505.2,329.2,-0.8,1.8,2471.127,13.28,0.034,108.4
2022-05-04T11:07:03,42.805,6.029,0.035,0.017,0.0,100.0,104.0,101.0,13.4,1505.2,326.3,-0.7,1.8,2471.124,13.28,0.038,64.1